Location: Ecklingerode
(51.5036°N, 10.3122°E)
Time: 13:49:21
(UTC+00:00)

Cosmos 1697 Rocket - Pass Details

Date: 29 October 2020
Orbit: 831 x 845 km, 71.0° (Epoch: 28 November)

Event Time Altitude Azimuth Distance (km) Brightness Sun altitude
Rises 17:07:34 0° 176° (S) 3,365 5.9 -11.5°
Reaches altitude 10° 17:10:13 10° 167° (SSE) 2,437 5.0 -11.9°
Maximum altitude 17:15:06 32° 106° (ESE) 1,408 3.4 -12.7°
Enters shadow 17:19:41 11° 47° (NE) 2,357 4.6 -13.4°
